This demonstration page uses our WeatherBlox Daily Observations layout. Learn more.

Left ArrowRight Arrow

40.92501, -98.34201

Hourly Observations for August 16, 2020

Temp ( °F °C ) Dew Point ( °F °C ) Humidity (%) Winds ( mph kmh ) Pressure ( in mb ) Visibility ( mi km ) Precip ( " mm )
12:53 am 00:53 Mostly Cloudy with Nearby Thunderstorms 70 21.1 58 14.4 66 66 S 6 9 30.10 1019 10 16 0.00 0.00
1:45 am 01:45 Mostly Cloudy with Light Rain 69 20.6 57 13.9 66 66 S 12 19 30.08 1018 10 16 0.00 0.00
1:53 am 01:53 Partly Cloudy 69 20.6 58 14.4 68 68 S 12 19 30.10 1019 10 16 0.00 0.00
2:22 am 02:22 Mostly Cloudy with Thunderstorms 69 20.6 58 14.4 68 68 S 12 19 30.07 1018 10 16 0.00 0.00
2:53 am 02:53 Cloudy with Thunderstorms 66 18.9 58 14.4 75 75 SE 15 24 30.11 1020 5 8 0.10 2.54
3:53 am 03:53 Windy with Storms Likely 65 18.3 61 16.1 87 87 SSW 20 31 30.09 1019 7 11 0.12 3.05
4:15 am 04:15 Mostly Cloudy with Nearby Thunderstorms 67 19.4 61 16.1 81 81 S 9 15 30.08 1019 10 16 0.01 0.25
4:40 am 04:40 Mostly Clear 64 17.8 57 13.9 78 78 S 9 15 30.09 1019 10 16 0.01 0.25
4:53 am 04:53 Mostly Clear 64 17.8 56 13.3 75 75 S 9 15 30.11 1020 10 16 0.01 0.25
5:53 am 05:53 Clear 63 17.2 56 13.3 78 78 S 5 7 30.11 1020 10 16 0.00 0.00
6:53 am 06:53 Sunny 65 18.3 54 12.2 68 68 S 6 9 30.11 1020 10 16 0.00 0.00
7:53 am 07:53 Sunny 67 19.4 54 12.2 63 63 S 6 9 30.12 1020 10 16 0.00 0.00
8:53 am 08:53 Sunny 72 22.2 57 13.9 59 59 S 10 17 30.13 1020 10 16 0.00 0.00
9:53 am 09:53 Sunny 74 23.3 57 13.9 56 56 SSW 13 20 30.13 1020 10 16 0.00 0.00
10:53 am 10:53 Sunny 79 26.1 61 16.1 54 54 SSW 13 20 30.12 1020 10 16 0.00 0.00
11:53 am 11:53 Sunny 81 27.2 65 18.3 58 58 SSW 15 24 30.11 1020 10 16 0.00 0.00
12:53 pm 12:53 Mostly Sunny 80 26.7 67 19.4 64 64 S 10 17 30.10 1019 10 16 0.00 0.00
1:53 pm 13:53 Sunny 84 28.9 68 20 59 59 S 13 20 30.07 1018 10 16 0.00 0.00
2:53 pm 14:53 Sunny 87 30.6 70 21.1 57 57 SSW 12 19 30.07 1018 10 16 0.00 0.00
3:53 pm 15:53 Sunny 90 32.2 71 21.7 54 54 SW 10 17 30.04 1017 10 16 0.00 0.00
4:53 pm 16:53 Partly Cloudy 89 31.7 71 21.7 55 55 SSW 9 15 30.02 1017 10 16 0.00 0.00
5:53 pm 17:53 Sunny with Nearby Thunderstorms 87 30.6 71 21.7 59 59 SW 12 19 29.99 1016 10 16 0.00 0.00
6:02 pm 18:02 Sunny with Thunderstorms 87 30.6 72 22.2 61 61 SW 10 17 29.90 1013 10 16 0.00 0.00
6:17 pm 18:17 Mostly Cloudy with Strong Thunderstorms 73 22.8 64 17.8 74 74 WSW 13 20 29.98 1015 1 1 0.07 1.78
6:28 pm 18:28 Mostly Cloudy with Thunderstorms 74 23.3 65 18.3 74 74 ESE 9 15 29.96 1015 5 8 0.15 3.81
6:53 pm 18:53 Partly Cloudy with Thunderstorms 74 23.3 67 19.4 79 79 S 5 7 30.02 1017 10 16 0.15 3.81
7:27 pm 19:27 Cloudy with Thunderstorms 70 21.1 61 16.1 73 73 WNW 9 15 30.05 1018 2 3 0.08 2.03
7:35 pm 19:35 Mostly Cloudy with Thunderstorms 69 20.6 63 17.2 81 81 WSW 10 17 30.03 1017 10 16 0.09 2.29
7:53 pm 19:53 Partly Cloudy with Nearby Thunderstorms 70 21.1 63 17.2 79 79 NE 13 20 30.08 1019 10 16 0.09 2.29
8:04 pm 20:04 Mostly Sunny 70 21.1 63 17.2 79 79 E 9 15 30.03 1017 10 16 0.00 0.00
8:53 pm 20:53 Clear 69 20.6 64 17.8 84 84 NNW 3 6 30.10 1019 10 16 0.00 0.00
9:53 pm 21:53 Clear 68 20 64 17.8 87 87 Calm 30.14 1021 10 16 0.00 0.00
10:53 pm 22:53 Clear 69 20.6 64 17.8 84 84 WSW 3 6 30.14 1021 10 16 0.00 0.00
11:53 pm 23:53 Clear 67 19.4 63 17.2 87 87 W 6 9 30.15 1021 10 16 0.00 0.00

Powered by AerisWeather